BREEZE-M DEB (TANK)

基本信息
目录编号:
29649
目录名称:
BREEZE-M DEB (TANK)
国际标识:
2006-056B
轨道中心:
EARTH
物体状态:
在轨
发射日期:
2006-12-11 UTC
轨道信息
数据来源: 国际轨道数据
星历时间: 2026-07-13T17:53:25+0800
半长轴: 14047.176km
偏心率: 0.5240295
轨道倾角: 49.508°
近地点辐角: 113.010°
升交点赤经: 276.630°
平近点角: 309.318°
近地点: 307.904km
远地点: 15030.174km
周期: 276.149分钟
每日圈数: 5.214579
详细信息
发射场:
TTMTR
轨道高度:
LEO
数据来源:
AOE Integration Group
参考系:
TEME
时间系统:
UTC
历元类型:
SGP4
2D轨道图
3D轨道图
轨道高度分析图
轨道倾角分析图
轨道综合分析图
查看轨道综合分析图